Regional Weather Roundup
Issued by NWS

Home | Current Version | Previous Version | Text Only | Print | Product List | Glossary Off
Versions: 1 2 3 4 5 6 7 8 9 10 11 12 13 14 15 16 17 18 19 20 21 22 23 24 25 26 27 28 29 30 31 32 33 34 35 36 37 38 39 40 41 42 43 44 45 46 47 48 49 50

000
ASUS43 KFSD 260302
RWRSD

WEATHER ROUNDUP FOR SOUTH DAKOTA
NATIONAL WEATHER SERVICE SIOUX FALLS SD
1000 PM CDT MON JUL 25 2016

NOTE: "FAIR" INDICATES FEW OR NO CLOUDS BELOW 12,000 FEET WITH NO
SIGNIFICANT WEATHER AND/OR OBSTRUCTIONS TO VISIBILITY.


SDZ001>005-009-010-012>017-260400-
NORTHWEST AND NORTH CENTRAL SOUTH DAKOTA

CITY           SKY/WX    TMP DP  RH WIND       PRES   REMARKS
BUFFALO          N/A     80  52  37 E9        29.94S
FAITH            N/A     84  50  30 W21       29.99R
MOBRIDGE       CLEAR     82  56  40 SE7       29.91R
$$

SDZ012>016-024>037-041>051-057-063-072>074-260400-
SOUTHWEST AND SOUTH CENTRAL SOUTH DAKOTA

CITY           SKY/WX    TMP DP  RH WIND       PRES   REMARKS
RAPID CTY ARPT CLEAR     77  58  51 SE6       29.99R
PIERRE         CLOUDY    82  54  37 S12       29.95R
CUSTER         CLEAR     74  51  44 SE6       30.18R
ELLSWORTH AFB  CLEAR     79  60  52 S2        29.99R
PHILIP         MOCLDY    83  57  41 SE8       29.97R
PINE RIDGE     CLEAR     82  60  47 S16G32    29.99F
WINNER         FAIR      80  53  39 S10       30.03R
$$

SDZ004>011-016>023-039-040-260400-
NORTHEAST SOUTH DAKOTA

CITY           SKY/WX    TMP DP  RH WIND       PRES   REMARKS
ABERDEEN       CLEAR     74  60  61 S10       29.94S
WATERTOWN      CLEAR     75  67  76 S10       30.03R
BROOKINGS      CLEAR     74  64  71 S7        30.05R
SISSETON         N/A     75  65  70 S12       29.95R
$$

SDZ017-020-022-023-036>040-048>070-260400-
SOUTHEAST SOUTH DAKOTA

CITY           SKY/WX    TMP DP  RH WIND       PRES   REMARKS
SIOUX FALLS    PTCLDY    75  63  66 S8        30.06R
HURON          CLOUDY    80  58  46 S12       29.99R
CHAMBERLAIN    CLEAR     73  57  57 S8        30.02R
MITCHELL       CLEAR     80  61  52 S12       30.03R
YANKTON        CLEAR     75  63  64 SE7       30.05R
$$

ABBREVIATIONS USED IN REMARKS
   TC - TEMPERATURE IN CELSIUS
  WCI - WIND CHILL INDEX
   HX - HEAT INDEX
  VSB - VISIBILITY





USA.gov is the U.S. government's official web portal to all federal, state and local government web resources and services.